TimeEDT,TemperatureF,Dew PointF,Humidity,Sea Level PressureIn,VisibilityMPH,Wind Direction,Wind SpeedMPH,Gust SpeedMPH,PrecipitationIn,Events,Conditions,WindDirDegrees,DateUTC
12:53 AM,64.9,46.9,52,29.87,10.0,NW,8.1,-,N/A,,Partly Cloudy,310,2012-10-30 04:53:00
1:53 AM,64.0,48.9,58,29.86,10.0,NNW,6.9,-,N/A,,Partly Cloudy,330,2012-10-30 05:53:00
2:53 AM,63.0,48.9,60,29.85,10.0,NW,5.8,-,N/A,,Partly Cloudy,320,2012-10-30 06:53:00
3:53 AM,62.1,48.9,62,29.85,10.0,NNW,5.8,-,N/A,,Scattered Clouds,340,2012-10-30 07:53:00
4:53 AM,60.1,46.9,62,29.88,10.0,NNE,13.8,-,N/A,,Mostly Cloudy,30,2012-10-30 08:53:00
5:53 AM,55.9,43.0,62,29.89,10.0,NNE,9.2,-,N/A,,Partly Cloudy,30,2012-10-30 09:53:00
6:53 AM,54.0,43.0,66,29.91,10.0,NNE,5.8,-,N/A,,Clear,30,2012-10-30 10:53:00
7:53 AM,54.0,42.1,64,29.94,10.0,ENE,3.5,-,N/A,,Partly Cloudy,60,2012-10-30 11:53:00
8:53 AM,55.9,41.0,57,29.96,10.0,East,4.6,-,N/A,,Clear,80,2012-10-30 12:53:00
9:53 AM,61.0,42.1,50,29.96,10.0,Calm,Calm,-,N/A,,Clear,0,2012-10-30 13:53:00
10:53 AM,64.9,46.9,52,29.96,10.0,NNW,5.8,-,N/A,,Scattered Clouds,330,2012-10-30 14:53:00
11:53 AM,70.0,48.0,46,29.96,10.0,WNW,17.3,26.5,N/A,,Scattered Clouds,300,2012-10-30 15:53:00
12:53 PM,70.0,46.9,44,29.95,10.0,NW,20.7,27.6,N/A,,Scattered Clouds,310,2012-10-30 16:53:00
1:53 PM,70.0,46.0,42,29.93,10.0,NW,15.0,29.9,N/A,,Clear,310,2012-10-30 17:53:00
2:53 PM,70.0,46.0,42,29.93,10.0,NW,20.7,29.9,N/A,,Clear,310,2012-10-30 18:53:00
3:53 PM,69.1,46.0,44,29.93,10.0,NW,20.7,27.6,N/A,,Clear,310,2012-10-30 19:53:00
4:53 PM,69.1,46.9,45,29.93,10.0,WNW,13.8,24.2,N/A,,Clear,300,2012-10-30 20:53:00
5:53 PM,66.9,48.0,51,29.93,10.0,NW,15.0,-,N/A,,Clear,310,2012-10-30 21:53:00
8:53 PM,63.0,51.1,65,29.97,10.0,WNW,4.6,-,N/A,,Clear,300,2012-10-31 00:53:00
9:53 PM,63.0,50.0,63,29.99,10.0,NW,4.6,-,N/A,,Clear,310,2012-10-31 01:53:00
10:53 PM,62.1,50.0,65,30.00,10.0,NW,3.5,-,N/A,,Clear,310,2012-10-31 02:53:00
11:53 PM,62.1,51.1,67,30.00,10.0,WNW,3.5,-,N/A,,Clear,290,2012-10-31 03:53:00